Regional Weather Roundup
Issued by NWS

Home | Current Version | Previous Version | Text Only | Print | Product List | Glossary Off
Versions: 1 2 3 4 5 6 7 8 9 10 11 12 13 14 15 16 17 18 19 20 21 22 23 24 25 26 27 28 29 30 31 32 33 34 35 36 37 38 39 40 41 42 43 44 45 46 47 48 49 50

000
ASUS45 KSLC 281210
RWRUT

UTAH REGIONAL WEATHER ROUNDUP
NATIONAL WEATHER SERVICE SALT LAKE CITY UT
600 AM MDT SAT MAR 28 2015

UTZ001>011-023>025-281300-

NORTHERN UTAH

CITY           SKY/WX    TMP DP  RH WIND       PRES   REMARKS
BRIGHAM CITY   CLEAR     40  33  76 CALM      30.10R
HILL AFB       PTCLDY    49  29  45 E20       30.10S
LOGAN          PTCLDY    37  33  85 CALM      30.10S
OGDEN          PTCLDY    48  30  49 S9        30.09R
PROVO AIRPORT  CLEAR     43  30  61 CALM      30.14S
SALT LAKE CITY PTCLDY    52  32  46 SE10      30.08S
VERNAL         CLEAR     39  26  59 CALM      30.18R
WENDOVER       CLEAR     46  27  46 CALM      30.08F
HEBER CITY     CLEAR     28  25  86 CALM      30.20R
WEST JORDAN    CLEAR     52  32  46 SW9       30.11R

$$

UTZ012>022-026-027-281300-

SOUTHERN/CENTRAL UTAH

CITY           SKY/WX    TMP DP  RH WIND       PRES   REMARKS
BLANDING       PTCLDY    41  24  51 N8        30.29S
BRYCE CANYON   PTCLDY    31  24  75 W12       30.31S WCI  22
CEDAR CITY     CLEAR     35  24  64 SW5       30.20S WCI  31
DELTA          CLEAR     43  29  58 CALM      30.14R
HANKSVILLE     CLEAR     36  21  55 CALM      30.17S
MILFORD        CLEAR     38  22  52 S12       30.15S WCI  30
MOAB/CYNLANDS  CLEAR     40  21  46 SW3       30.15R
PRICE          CLEAR     42  22  44 NE9       30.19S
ST GEORGE      SUNNY     54  25  32 E9        30.15R
KANAB          CLEAR     32  23  69 NE6       30.26R WCI  26

$$

REGIONAL REPORTS     COLORADO/ARIZONA

CITY           SKY/WX    TMP DP  RH WIND       PRES   REMARKS
CRAIG, CO      PTCLDY    27  23  85 CALM      30.22R
GRAND JUNCTION CLEAR     43  26  51 E10       30.17R
RIFLE          CLEAR     34  25  69 SW3       30.23R
MONTROSE       CLEAR     38  25  59 SE9       30.24S WCI  31
CORTEZ         CLEAR     29  21  72 E3        30.25R
PAGE, AZ       CLEAR     56  23  27 NW5       30.16R
GRAND CANYON   PTCLDY    26  19  74 CALM      30.31R
KINGMAN        CLEAR     48  25  40 MISG      30.13S
FLAGSTAFF      PTCLDY    29  20  69 SW3       30.32R

$$

REGIONAL REPORTS    NEVADA/IDAHO/WYOMING

CITY           SKY/WX    TMP DP  RH WIND       PRES   REMARKS
LAS VEGAS, NV  CLEAR     63  28  26 SW7       30.00S
ELY            CLEAR     36  17  46 SE6       30.22R WCI  31
ELKO           CLEAR     35  26  69 CALM      30.15R
POCATELLO, ID  CLEAR     59  28  30 S12       30.01F
BURLEY         CLEAR     52  29  41 SW10      30.01R
EVANSTON, WY   PTCLDY    41  25  53 S7        30.20S
ROCK SPRINGS   PTCLDY    37  25  61 SW9       30.18S WCI  30

$$


USA.gov is the U.S. government's official web portal to all federal, state and local government web resources and services.